Location: French River
(46.0362°N, 80.5373°W)
Time: 10:54:55
(UTC-05:00)

ISS - Visible Passes

Search period start: 19 February 2018 00:00
Search period end: 01 March 2018 00:00
Orbit: 403 x 407 km, 51.6° (Epoch: 20 February)

Date Brightness Start Highest point End Pass type
(mag) Time Alt. Az. Time Alt. Az. Time Alt. Az.
26 Feb -1.9 06:34:22 10° SSW 06:37:15 29° SE 06:40:10 10° ENE visible
27 Feb -1.1 05:42:55 10° S 05:45:09 17° SE 05:47:24 10° E visible
28 Feb -3.4 06:25:46 10° SW 06:29:00 62° SSE 06:32:15 10° ENE visible
